This is the latest recevied weather packets stored in our database for station/object AE0NK. If no packets are shown the sender has not sent any weather packets the latest 10 day(s).
| Time | Temp. | Humidity | Pressure | Rain* | Wind** | Luminosity | Snow |
|---|---|---|---|---|---|---|---|
| 1777470200 | 10° C | 54% | 1017.9 hPa | 0 mm | - | 373 W/m² | - |
| 1777469896 | 9.44° C | 57% | 1017.7 hPa | 0 mm | - | 336 W/m² | - |
| 1777469594 | 9.44° C | 55% | 1017.8 hPa | 0 mm | - | 302 W/m² | - |
| 1777469292 | 9.44° C | 58% | 1017.9 hPa | 0 mm | - | 281 W/m² | - |
| 1777469009 | 8.89° C | 59% | 1017.6 hPa | 0 mm | - | 116 W/m² | - |
| 1777468707 | 8.89° C | 60% | 1017.7 hPa | 0 mm | - | 269 W/m² | - |
| 1777468406 | 8.33° C | 58% | 1017.5 hPa | 0 mm | - | 171 W/m² | - |
| 1777468103 | 8.33° C | 58% | 1017.5 hPa | 0 mm | - | 102 W/m² | - |
| 1777467798 | 8.33° C | 61% | 1017.6 hPa | 0 mm | - | 113 W/m² | - |
| 1777467493 | 8.33° C | 62% | 1017.4 hPa | 0 mm | - | 190 W/m² | - |
| 1777467192 | 8.33° C | 64% | 1017.4 hPa | 0 mm | - | 76 W/m² | - |
| 1777466910 | 8.33° C | 62% | 1017.5 hPa | 0 mm | - | 81 W/m² | - |
| 1777466608 | 8.33° C | 63% | 1017.4 hPa | 0 mm | - | 79 W/m² | - |
| 1777466305 | 8.33° C | 64% | 1017.4 hPa | 0 mm | - | 74 W/m² | - |
| 1777466003 | 8.33° C | 66% | 1017.4 hPa | 0 mm | - | 72 W/m² | - |
| 1777465700 | 8.33° C | 68% | 1017.4 hPa | 0 mm | - | 58 W/m² | - |
| 1777465397 | 8.33° C | 69% | 1017.5 hPa | 0 mm | - | 58 W/m² | - |
| 1777465095 | 7.78° C | 67% | 1017.5 hPa | 0 mm | - | 56 W/m² | - |
| 1777464792 | 7.78° C | 68% | 1017.5 hPa | 0 mm | - | 63 W/m² | - |
| 1777464493 | 7.78° C | 69% | 1017.4 hPa | 0 mm | - | 53 W/m² | - |
| 1777464211 | 7.78° C | 70% | 1017.3 hPa | 0 mm | - | 28 W/m² | - |
| 1777463905 | 7.78° C | 70% | 1017.2 hPa | 0 mm | - | 23 W/m² | - |
| 1777463603 | 7.78° C | 69% | 1017.2 hPa | 0 mm | - | 21 W/m² | - |
| 1777463301 | 7.78° C | 69% | 1017.2 hPa | 0 mm | - | 19 W/m² | - |
| 1777463000 | 7.78° C | 70% | 1017.2 hPa | 0 mm | - | 16 W/m² | - |
* Rain latest hour (hover to see other rain measurements)
** Current wind speed in m/s (hover to see current wind gust speed)